星链-2062 (STARLINK-2062 )
导读 | 豆包AI
STARLINK-2062是美国太空探索技术公司(SpaceX)星链(Starlink)星座中的一颗低轨通信卫星,由美国于2021年2月16日发射。它运行在近地轨道,为全球提供高速低延迟互联网接入服务,是星链全球卫星互联网组网建设的重要组成部分,助力实现全球无死角宽带覆盖。
Basic Information
目录编号:
47670
目录名称:
STARLINK-2062
国际标识:
2021-012BC
轨道中心:
EARTH
卫星名称:
星链-2062
卫星全名:
星链-2062 (STARLINK-2062 )
卫星状态:
已陨落 最后检测时间 2025-03-25
发射日期:
2021-02-16 UTC
国别 :
美国
(US)
星等 :
--
Orbit Information
| 数据来源 | 国际轨道数据 |
| 星历时间: | 2025-03-25T13:09:28+0800 轨道信息已过期426天 |
| 半长轴: | 6529.673km |
| 偏心率: | 0.0005803 |
| 轨道倾角: | 53.028° |
| 近地点辐角 | 337.648° |
| 升交点赤经 | 131.014° |
| 平近点角 | 135.002° |
| 近地点: | 147.748km |
| 远地点: | 155.328km |
| 周期: | 87.518分钟 |
| 每日圈数: | 16.45378 |
Detailed Information
固有亮度:
5
最大亮度:
2.5
卫星平台:
Starlink V1.0
覆盖范围:
全球
运营商:
太空探索技术公司
运营商所在国:
美国
制造商(研发单位):
太空探索技术公司
制造商所在国:
美国
使用方式:
暂无
Satellite Introduction
星链(Starlink)计划是由太空探索技术公司(SpaceX)提出的一个巨型低轨卫星互联网星座项目,计划在2019年至2024年间在太空搭建由约1.2万颗卫星组成的“星链”网络,其中1584颗将部署在地球上空550千米处的近地轨道,并从2020年开始工作。该卫星仍在工作。

